FW2068 Weather Reports


time (UTC)temp
C
wind
direction
speed
KPH
gust
KPH
rain 1hr
cm
rain 24hr
cm
rain mn
cm
humidity
%
barometer
mb
20260509091154 20 132 17.7 24.1 0.00 0.00 0.00 94 1006.9
20260509090652 20 132 19.3 24.1 0.00 0.00 0.00 93 1007.1
20260509090149 20 120 12.9 27.4 0.00 0.00 0.00 93 1007.3
20260509085647 20 127 14.5 19.3 0.00 0.00 0.00 93 1007.9
20260509085143 20 136 11.3 19.3 0.00 0.00 0.00 93 1008.0
20260509084640 20 140 11.3 17.7 0.00 0.00 0.00 92 1008.4
20260509084137 20 124 12.9 20.9 0.00 0.00 0.00 92 1008.6
20260509083634 20 131 8.0 17.7 0.00 0.00 0.00 92 1008.8
20260509083131 20 144 6.4 17.7 0.00 0.00 0.00 91 1008.8
20260509082628 20 156 12.9 17.7 0.00 0.00 0.00 91 1009.3
20260509082125 21 143 22.5 22.5 0.00 0.00 0.00 91 1009.6
20260509081622 21 135 12.9 16.1 0.00 0.00 0.00 90 1009.6
20260509081119 21 155 8.0 9.7 0.00 0.00 0.00 90 1010.0
20260509080617 21 186 3.2 6.4 0.00 0.00 0.00 90 1010.2
20260509080115 21 171 6.4 9.7 0.00 0.00 0.00 90 1010.0
20260509075612 21 155 8.0 8.0 0.00 0.00 0.00 90 1010.1
20260509075110 21 137 0.0 3.2 0.00 0.00 0.00 90 1010.2
20260509074607 21 170 0.0 3.2 0.00 0.00 0.00 90 1010.2
20260509074103 21 136 1.6 3.2 0.00 0.00 0.00 90 1010.6
20260509073600 21 187 0.0 3.2 0.00 0.00 0.00 90 1010.5
20260509073056 21 143 3.2 4.8 0.00 0.00 0.00 89 1010.7
20260509072553 21 243 0.0 3.2 0.00 0.00 0.00 90 1010.6
20260509072050 21 209 4.8 4.8 0.00 0.00 0.00 90 1010.6
20260509071546 21 130 4.8 4.8 0.00 0.00 0.00 90 1010.1
20260509071044 20 155 4.8 8.0 0.00 0.00 0.00 90 1009.9
20260509070541 20 154 8.0 12.9 0.00 0.00 0.00 89 1009.9
20260509070037 20 151 8.0 9.7 0.00 0.00 0.00 89 1009.9
20260509065532 20 153 6.4 8.0 0.00 0.00 0.00 89 1009.7
20260509065029 20 147 4.8 6.4 0.00 0.00 0.00 89 1009.9
20260509064527 21 137 4.8 8.0 0.00 0.00 0.00 88 1009.8
20260509064025 21 124 3.2 9.7 0.00 0.00 0.00 88 1009.5
20260509063520 21 150 6.4 8.0 0.00 0.00 0.00 87 1010.0
20260509063017 21 170 3.2 3.2 0.00 0.00 0.00 87 1010.1
20260509062514 21 147 4.8 8.0 0.00 0.00 0.00 86 1010.1
20260509062012 21 128 4.8 8.0 0.00 0.00 0.00 85 1010.3
20260509061509 21 231 3.2 4.8 0.00 0.00 0.00 85 1010.4
20260509061006 21 276 1.6 4.8 0.00 0.00 0.00 85 1010.4
20260509060503 21 159 6.4 9.7 0.00 0.00 0.00 86 1009.9
20260509055959 21 172 4.8 8.0 0.00 0.00 0.00 84 1010.3
20260509055454 21 274 0.0 1.6 0.00 0.00 0.00 85 1010.9
20260509054951 21 166 3.2 3.2 0.00 0.00 0.00 84 1010.6
20260509054448 21 131 0.0 1.6 0.00 0.00 0.00 84 1011.0
20260509053946 21 297 0.0 0.0 0.00 0.00 0.00 84 1011.1
20260509053444 21 87 0.0 4.8 0.00 0.00 0.00 84 1010.8
20260509052941 21 58 3.2 6.4 0.00 0.00 0.00 84 1010.4
20260509052438 21 137 9.7 11.3 0.00 0.00 0.00 84 1010.2
20260509051936 22 159 4.8 8.0 0.00 0.00 0.00 84 1010.3
20260509051434 22 138 3.2 11.3 0.00 0.00 0.00 83 1010.0
20260509050931 22 156 14.5 17.7 0.00 0.00 0.00 83 1009.6
20260509050427 22 160 8.0 9.7 0.00 0.00 0.00 83 1010.0
20260509045924 22 156 9.7 14.5 0.00 0.00 0.00 83 1009.7
20260509045421 22 138 12.9 17.7 0.00 0.00 0.00 84 1009.3
20260509044918 22 138 14.5 20.9 0.00 0.00 0.00 83 1009.2
20260509044416 22 134 12.9 12.9 0.00 0.00 0.00 82 1009.8
20260509043913 22 116 6.4 8.0 0.00 0.00 0.00 83 1010.1
20260509043408 22 137 6.4 8.0 0.00 0.00 0.00 82 1010.2
20260509042904 22 124 3.2 4.8 0.00 0.00 0.00 81 1010.4
20260509042401 22 159 4.8 4.8 0.00 0.00 0.00 80 1010.7
20260509041857 22 237 3.2 3.2 0.00 0.00 0.00 80 1010.5
20260509041354 22 212 0.0 3.2 0.00 0.00 0.00 81 1010.6
20260509040853 22 110 0.0 3.2 0.00 0.00 0.00 81 1010.6
20260509040350 22 109 3.2 8.0 0.00 0.00 0.00 81 1010.5
20260509035847 22 144 6.4 8.0 0.00 0.00 0.00 81 1010.3
20260509035344 22 141 3.2 6.4 0.00 0.00 0.00 81 1010.3
20260509034840 22 151 3.2 6.4 0.00 0.00 0.00 81 1010.3
20260509034338 22 176 4.8 6.4 0.00 0.00 0.00 81 1010.0
20260509033834 22 126 6.4 8.0 0.00 0.00 0.00 81 1010.1
20260509033332 22 142 3.2 4.8 0.00 0.00 0.00 81 1009.7
20260509032828 22 139 4.8 9.7 0.00 0.00 0.00 81 1009.8
20260509032326 22 158 4.8 6.4 0.00 0.00 0.00 81 1009.9
20260509031824 22 138 6.4 6.4 0.00 0.00 0.00 81 1009.8
20260509031321 22 144 4.8 4.8 0.00 0.00 0.00 81 1009.8
20260509030818 22 139 4.8 9.7 0.00 0.00 0.00 80 1009.7
20260509030316 22 131 6.4 6.4 0.00 0.00 0.00 80 1009.5
20260509025813 22 109 3.2 6.4 0.00 0.00 0.00 80 1009.8
20260509025308 22 118 4.8 6.4 0.00 0.00 0.00 80 1009.5
20260509024804 22 132 6.4 6.4 0.00 0.00 0.00 80 1009.5
20260509024300 22 148 8.0 9.7 0.00 0.00 0.00 80 1009.4
20260509023757 22 135 8.0 11.3 0.00 0.00 0.00 79 1009.0
20260509023255 22 139 8.0 16.1 0.00 0.00 0.00 79 1009.0
20260509022750 22 134 9.7 12.9 0.00 0.00 0.00 78 1009.0
20260509022248 22 134 9.7 12.9 0.00 0.00 0.00 78 1009.1
20260509021745 22 140 4.8 8.0 0.00 0.00 0.00 78 1009.1
20260509021242 22 137 6.4 9.7 0.00 0.00 0.00 78 1009.2
20260509020740 22 127 6.4 11.3 0.00 0.00 0.00 77 1009.1
20260509020237 22 143 3.2 9.7 0.00 0.00 0.00 78 1009.0
20260509015735 22 141 4.8 9.7 0.00 0.00 0.00 77 1009.0
20260509015233 22 159 4.8 8.0 0.00 0.00 0.00 76 1009.2
20260509014729 22 142 3.2 9.7 0.00 0.00 0.00 76 1009.1
20260509014226 22 158 9.7 11.3 0.00 0.00 0.00 76 1008.9
20260509013723 22 128 6.4 9.7 0.00 0.00 0.00 77 1008.9
20260509013218 22 159 8.0 9.7 0.00 0.00 0.00 76 1008.9
20260509012715 22 141 4.8 9.7 0.00 0.00 0.00 77 1008.9
20260509012212 22 154 4.8 8.0 0.00 0.00 0.00 78 1008.6
20260509011710 22 149 6.4 11.3 0.00 0.00 0.00 78 1008.5
20260509011207 22 131 6.4 9.7 0.00 0.00 0.00 78 1008.4
20260509010705 22 131 6.4 9.7 0.00 0.00 0.00 78 1008.3
20260509010201 22 151 9.7 12.9 0.00 0.00 0.00 77 1008.2
20260509005659 22 114 3.2 8.0 0.00 0.00 0.00 78 1008.2
20260509005155 22 113 6.4 12.9 0.00 0.00 0.00 77 1008.1
20260509004650 22 153 9.7 11.3 0.00 0.00 0.00 77 1008.2
20260509004148 22 123 9.7 12.9 0.00 0.00 0.00 76 1008.2
20260509003646 22 116 4.8 9.7 0.00 0.00 0.00 77 1008.1
20260509003143 22 131 11.3 20.9 0.00 0.00 0.00 76 1008.2
20260509002641 22 146 9.7 11.3 0.00 0.00 0.00 76 1008.4
20260509002138 23 118 4.8 8.0 0.00 0.00 0.00 76 1008.2
20260509001636 22 138 6.4 9.7 0.00 0.00 0.00 75 1008.2
20260509001131 23 134 8.0 8.0 0.00 0.00 0.00 76 1008.3
20260509000629 23 140 6.4 9.7 0.00 0.00 0.00 76 1008.4
20260509000126 22 150 9.7 12.9 0.00 0.00 0.00 75 1008.5
20260508235623 22 145 6.4 12.9 0.00 0.00 0.00 75 1008.6
20260508235119 23 161 6.4 9.7 0.00 0.00 0.00 75 1008.6
20260508234617 23 161 14.5 16.1 0.00 0.00 0.00 74 1008.7
20260508234113 23 131 6.4 16.1 0.00 0.00 0.00 74 1008.6
20260508233613 23 128 4.8 9.7 0.00 0.00 0.00 74 1008.8
20260508233110 22 156 11.3 11.3 0.00 0.00 0.00 74 1008.7
20260508232607 23 127 6.4 9.7 0.00 0.00 0.00 73 1008.7
20260508232103 23 104 4.8 11.3 0.00 0.00 0.00 74 1008.5
20260508231601 23 152 6.4 11.3 0.00 0.00 0.00 74 1008.7
20260508231058 23 136 6.4 8.0 0.00 0.00 0.00 73 1008.6
20260508230554 22 202 3.2 8.0 0.00 0.00 0.00 73 1008.8
20260508230051 22 164 3.2 8.0 0.00 0.00 0.00 73 1008.6
20260508225549 22 100 4.8 6.4 0.00 0.00 0.00 73 1008.8
20260508225045 22 142 8.0 12.9 0.00 0.00 0.00 72 1009.0
20260508224543 22 152 6.4 9.7 0.00 0.00 0.00 72 1008.8
20260508224040 22 145 11.3 11.3 0.00 0.00 0.00 71 1009.0
20260508223538 22 140 9.7 11.3 0.00 0.00 0.00 71 1009.0
20260508223035 22 208 4.8 11.3 0.00 0.00 0.00 72 1009.0
20260508222533 22 186 9.7 14.5 0.00 0.00 0.00 71 1009.0
20260508222029 22 153 16.1 20.9 0.00 0.00 0.00 72 1008.9
20260508221525 23 194 11.3 14.5 0.00 0.00 0.00 69 1008.8
20260508221021 23 159 14.5 17.7 0.00 0.00 0.00 70 1008.8
20260508220518 23 153 11.3 16.1 0.00 0.00 0.00 71 1008.9
20260508220014 23 224 6.4 11.3 0.00 0.00 0.00 72 1008.9
20260508215511 23 243 8.0 9.7 0.00 0.00 0.00 72 1008.9
20260508215008 22 287 11.3 14.5 0.00 0.00 0.00 73 1008.6
20260508214506 23 287 9.7 9.7 0.00 0.00 0.00 74 1008.6
20260508214001 22 290 9.7 19.3 0.00 0.00 0.00 76 1008.5
20260508213459 23 317 4.8 17.7 0.00 0.00 0.00 76 1008.0
20260508212954 21 140 9.7 29.0 0.00 0.00 0.00 79 1006.5
20260508212451 22 113 9.7 29.0 0.00 0.00 0.00 78 1007.8
20260508211947 22 151 9.7 16.1 0.00 0.00 0.00 78 1009.3
20260508211443 22 194 8.0 14.5 0.00 0.00 0.00 77 1010.3
20260508210940 22 201 6.4 16.1 0.00 0.00 0.00 77 1009.9
20260508210437 23 156 14.5 17.7 0.00 0.00 0.00 75 1009.8
20260508205933 23 248 6.4 8.0 0.00 0.00 0.00 70 1010.5
20260508205430 23 134 1.6 8.0 0.00 0.00 0.00 69 1010.5
20260508204927 23 243 4.8 9.7 0.00 0.00 0.00 68 1010.4
20260508204424 23 138 11.3 12.9 0.00 0.00 0.00 68 1010.8
20260508203919 23 228 6.4 14.5 0.00 0.00 0.00 67 1010.5
20260508203416 24 141 12.9 16.1 0.00 0.00 0.00 66 1010.4
20260508202912 25 210 4.8 9.7 0.00 0.00 0.00 65 1010.3
20260508202409 25 203 3.2 14.5 0.00 0.00 0.00 63 1010.4
20260508201906 25 170 4.8 11.3 0.00 0.00 0.00 64 1010.3
20260508201403 25 142 8.0 14.5 0.00 0.00 0.00 64 1010.4
20260508200859 25 166 8.0 19.3 0.00 0.00 0.00 65 1010.3
20260508200356 25 195 8.0 20.9 0.00 0.00 0.00 64 1010.3
20260508195852 25 130 8.0 11.3 0.00 0.00 0.00 65 1010.3
20260508195349 25 160 9.7 14.5 0.00 0.00 0.00 64 1010.4
20260508194845 24 159 8.0 20.9 0.00 0.00 0.00 64 1010.5
20260508194342 25 164 9.7 17.7 0.00 0.00 0.00 63 1010.5
20260508193839 25 137 6.4 14.5 0.00 0.00 0.00 63 1010.4
20260508193336 24 144 12.9 16.1 0.00 0.00 0.00 63 1010.8
20260508192832 24 158 9.7 19.3 0.00 0.00 0.00 64 1010.8
20260508192329 24 152 11.3 20.9 0.00 0.00 0.00 65 1010.7
20260508191826 24 168 14.5 24.1 0.00 0.00 0.00 63 1010.9
20260508191324 24 159 14.5 20.9 0.00 0.00 0.00 65 1010.7
20260508190821 25 141 9.7 19.3 0.00 0.00 0.00 62 1011.0
20260508190317 25 140 16.1 17.7 0.00 0.00 0.00 62 1011.0
20260508185813 25 162 11.3 19.3 0.00 0.00 0.00 63 1011.1
20260508185311 25 153 6.4 20.9 0.00 0.00 0.00 63 1011.0
20260508184808 25 158 11.3 24.1 0.00 0.00 0.00 63 1010.9
20260508184305 25 139 8.0 16.1 0.00 0.00 0.00 64 1010.9
20260508183803 25 154 6.4 24.1 0.00 0.00 0.00 64 1011.1
20260508183259 25 66 4.8 20.9 0.00 0.00 0.00 61 1011.3
20260508182755 25 101 6.4 20.9 0.00 0.00 0.00 61 1011.4
20260508182252 25 119 6.4 20.9 0.00 0.00 0.00 63 1011.3
20260508181747 25 136 11.3 16.1 0.00 0.00 0.00 64 1011.5
20260508181244 25 145 19.3 24.1 0.00 0.00 0.00 62 1011.6
20260508180741 25 132 6.4 9.7 0.00 0.00 0.00 62 1011.6
20260508180238 24 122 8.0 17.7 0.00 0.00 0.00 63 1011.7
20260508175734 24 167 9.7 9.7 0.00 0.00 0.00 63 1011.9
20260508175231 24 97 4.8 16.1 0.00 0.00 0.00 61 1012.0
20260508174729 24 89 6.4 9.7 0.00 0.00 0.00 62 1012.0
20260508174226 25 97 6.4 11.3 0.00 0.00 0.00 63 1012.0
20260508173722 23 177 9.7 20.9 0.00 0.00 0.00 66 1012.1
20260508173218 23 162 6.4 9.7 0.00 0.00 0.00 65 1012.4
20260508172715 23 132 8.0 17.7 0.00 0.00 0.00 64 1012.1
20260508172212 23 146 11.3 17.7 0.00 0.00 0.00 66 1012.3
20260508171708 23 133 8.0 9.7 0.00 0.00 0.00 63 1012.4
20260508171205 23 142 6.4 14.5 0.00 0.00 0.00 64 1012.5
20260508170702 23 122 8.0 19.3 0.00 0.00 0.00 64 1012.7
20260508170200 22 160 9.7 14.5 0.00 0.00 0.00 65 1012.9
20260508165657 22 161 8.0 17.7 0.00 0.00 0.00 65 1013.0
20260508165154 22 160 12.9 17.7 0.00 0.00 0.00 65 1013.1
20260508164650 22 133 12.9 19.3 0.00 0.00 0.00 67 1013.2
20260508164147 22 139 9.7 16.1 0.00 0.00 0.00 66 1013.4
20260508163645 22 140 9.7 19.3 0.00 0.00 0.00 67 1013.4
20260508163142 22 152 9.7 16.1 0.00 0.00 0.00 66 1013.7
20260508162637 21 118 14.5 17.7 0.00 0.00 0.00 68 1013.7
20260508162135 21 93 11.3 14.5 0.00 0.00 0.00 68 1013.6
20260508161632 22 148 16.1 20.9 0.00 0.00 0.00 67 1013.6
20260508161129 21 148 12.9 14.5 0.00 0.00 0.00 67 1013.9
20260508160627 21 121 6.4 16.1 0.00 0.00 0.00 67 1013.7
20260508160125 21 133 8.0 16.1 0.00 0.00 0.00 67 1013.7
20260508155621 21 136 11.3 16.1 0.00 0.00 0.00 68 1013.9
20260508155118 21 164 11.3 16.1 0.00 0.00 0.00 68 1013.9
20260508154615 21 136 12.9 14.5 0.00 0.00 0.00 68 1014.2
20260508154112 21 180 9.7 12.9 0.00 0.00 0.00 68 1014.1
20260508153609 21 147 3.2 12.9 0.00 0.00 0.00 69 1014.2
20260508153105 20 181 8.0 16.1 0.00 0.00 0.00 68 1014.2
20260508152602 20 153 12.9 16.1 0.00 0.00 0.00 68 1014.1
20260508152057 20 139 9.7 16.1 0.00 0.00 0.00 68 1014.4
20260508151555 20 137 14.5 17.7 0.00 0.00 0.00 68 1014.2
20260508151052 20 135 11.3 14.5 0.00 0.00 0.00 70 1014.3
20260508150549 20 148 16.1 19.3 0.00 0.00 0.00 69 1014.2
20260508150044 20 142 16.1 24.1 0.00 0.00 0.00 69 1014.4
20260508145541 20 131 9.7 17.7 0.00 0.00 0.00 71 1014.2
20260508145038 20 132 17.7 17.7 0.00 0.00 0.00 68 1014.3
20260508144536 20 123 9.7 17.7 0.00 0.00 0.00 69 1014.1
20260508144033 20 175 11.3 16.1 0.00 0.00 0.00 68 1014.0
20260508143530 21 140 9.7 14.5 0.00 0.00 0.00 68 1014.2
20260508143026 20 143 12.9 17.7 0.00 0.00 0.00 68 1014.2
20260508142524 20 138 8.0 12.9 0.00 0.00 0.00 69 1014.2
20260508142020 20 131 9.7 12.9 0.00 0.00 0.00 71 1014.3
20260508141517 20 129 11.3 17.7 0.00 0.00 0.00 69 1014.6
20260508141015 20 125 14.5 19.3 0.00 0.00 0.00 71 1014.6
20260508140512 20 132 12.9 14.5 0.00 0.00 0.00 70 1014.5
20260508140008 19 138 9.7 24.1 0.00 0.00 0.00 72 1014.5
20260508135504 19 151 9.7 19.3 0.00 0.00 0.00 74 1014.4
20260508135000 18 109 9.7 17.7 0.00 0.00 0.00 76 1014.6
20260508134457 18 124 6.4 16.1 0.00 0.00 0.00 75 1014.5
20260508133953 18 112 9.7 9.7 0.00 0.00 0.00 74 1014.5
20260508133451 18 127 6.4 9.7 0.00 0.00 0.00 75 1014.6
20260508132947 18 129 8.0 8.0 0.00 0.00 0.00 74 1014.5
20260508132446 18 101 4.8 9.7 0.00 0.00 0.00 73 1014.5
20260508131942 18 86 0.0 4.8 0.00 0.00 0.00 74 1014.6
20260508131438 18 70 3.2 4.8 0.00 0.00 0.00 75 1014.8
20260508130934 18 109 3.2 4.8 0.00 0.00 0.00 78 1014.9
20260508130432 17 147 0.0 1.6 0.00 0.00 0.00 80 1014.8
20260508125927 16 127 0.0 3.2 0.00 0.00 0.00 83 1014.7
20260508125423 16 95 4.8 4.8 0.00 0.00 0.00 83 1014.7
20260508124921 16 93 0.0 3.2 0.00 0.00 0.00 83 1014.6
20260508124419 16 103 4.8 4.8 0.00 0.00 0.00 83 1014.4
20260508123917 16 92 3.2 6.4 0.00 0.00 0.00 84 1014.2
20260508123415 16 79 3.2 4.8 0.00 0.00 0.00 85 1014.4
20260508122911 15 89 3.2 4.8 0.00 0.00 0.00 86 1014.4
20260508122408 15 109 3.2 8.0 0.00 0.00 0.00 86 1014.6
20260508121905 15 99 3.2 3.2 0.00 0.00 0.00 86 1014.8
20260508121403 15 99 1.6 4.8 0.00 0.00 0.00 86 1014.8
20260508120901 15 78 3.2 8.0 0.00 0.00 0.00 86 1014.6
20260508120358 15 78 3.2 3.2 0.00 0.00 0.00 86 1014.8
20260508115856 15 122 0.0 3.2 0.00 0.00 0.00 85 1014.8
20260508115353 15 111 3.2 6.4 0.00 0.00 0.00 85 1014.8
20260508114849 15 120 4.8 6.4 0.00 0.00 0.00 85 1014.7
20260508114346 15 108 0.0 4.8 0.00 0.00 0.00 86 1014.8
20260508113843 15 63 3.2 4.8 0.00 0.00 0.00 87 1014.8
20260508113341 15 80 0.0 3.2 0.00 0.00 0.00 87 1015.3
20260508112837 15 79 1.6 4.8 0.00 0.00 0.00 87 1015.3
20260508112335 15 329 3.2 6.4 0.00 0.00 0.00 87 1015.5
20260508111831 15 306 3.2 8.0 0.00 0.00 0.00 87 1015.5
20260508111328 15 14 0.0 3.2 0.00 0.00 0.00 86 1015.2
20260508110826 15 320 1.6 3.2 0.00 0.00 0.00 85 1014.8
20260508110323 15 282 1.6 3.2 0.00 0.00 0.00 86 1014.6
20260508105823 15 103 0.0 6.4 0.00 0.00 0.00 86 1014.4
20260508105320 15 146 8.0 9.7 0.00 0.00 0.00 87 1014.0
20260508104817 15 148 8.0 9.7 0.00 0.00 0.00 88 1013.7
20260508104313 15 124 8.0 9.7 0.00 0.00 0.00 87 1013.9
20260508103811 15 121 4.8 6.4 0.00 0.00 0.00 87 1013.9
20260508103307 15 123 3.2 4.8 0.00 0.00 0.00 87 1013.9
20260508102805 15 136 3.2 4.8 0.00 0.00 0.00 87 1014.0
20260508102306 15 105 3.2 4.8 0.00 0.00 0.00 87 1013.7
20260508101800 15 89 0.0 3.2 0.00 0.00 0.00 87 1013.6
20260508101257 15 103 3.2 4.8 0.00 0.00 0.00 87 1013.9
20260508100755 15 106 3.2 3.2 0.00 0.00 0.00 87 1013.9
20260508100253 15 134 3.2 4.8 0.00 0.00 0.00 88 1014.2
20260508095749 15 132 4.8 6.4 0.00 0.00 0.00 88 1014.3
20260508095246 15 131 6.4 8.0 0.00 0.00 0.00 88 1013.9
20260508094743 15 109 4.8 9.7 0.00 0.00 0.00 88 1013.7
20260508094240 15 122 6.4 8.0 0.00 0.00 0.00 88 1013.6
20260508093737 15 119 3.2 6.4 0.00 0.00 0.00 87 1014.1
20260508093235 15 113 3.2 4.8 0.00 0.00 0.00 87 1014.1
20260508092731 15 118 6.4 8.0 0.00 0.00 0.00 87 1013.7
20260508092230 15 113 3.2 9.7 0.00 0.00 0.00 87 1013.7
20260508091728 15 117 4.8 8.0 0.00 0.00 0.00 87 1013.9